Flag for Brazil Weather past 2 weeks in Rio Grande, Rio Grande do Sul, Brazil

Now
59 °F

Passing clouds.


Feels Like: 58 °F
Forecast: 54 / 67 °F
Wind: 6 mph from East

Location: Pelotas Airport

Current Time: Sep 22, 2014 at 9:45:12 AM

Latest Report: Sep 22, 2014 at 9:00 AM


Visibility: N/A

Pressure: 30.21 "Hg

Humidity: 88%

Dew point: 55 °F

Location of Rio GrandeLocation

Historic Weather in Rio Grande — Graph

°F

Rio Grande temperature yesterday

Maximum temperature yesterday: 66 °F (at 1:00 PM)
Minimum temperature yesterday: 52 °F (at 9:00 PM)
Average temperature yesterday: 60 °F

Past Weeks' High & Low Weather Summary

 TemperatureHumidityPressure
High88 °F (Sep 9, 2:00 PM)100% (Sep 8, 12:00 AM)30.21 "Hg (Sep 8, 12:00 AM)
Low45 °F (Sep 22, 4:00 AM)40% (Sep 7, 12:00 PM)29.56 "Hg (Sep 9, 8:00 PM)
Average61 °F86%29.99 "Hg
* Reported Sep 7 9:00 AM — Sep 22 8:00 AM, Rio Grande, Weather by CustomWeather, © 2014

Note: Actual official high and low records may vary slightly from our data, if they occured in-between our weather recording intervals... More about our weather records

Advertising

Rio Grande weather history for previous 24 hours

 ConditionsComfort  
Time TempWeatherWind HumidityBarometerVisibility
8:00 AM
Sep 22
54 °FPassing clouds.2 mph94%30.21 "HgN/A
7:00 AM45 °FSunny.No wind100%30.18 "Hg10 mi
6:00 AM45 °FSunny.1 mph100%30.15 "Hg10 mi
5:00 AM45 °FClear.No wind100%30.15 "Hg10 mi
4:00 AM45 °FClear.1 mph100%30.15 "Hg10 mi
3:00 AM46 °FClear.3 mph100%30.18 "Hg10 mi
2:00 AM46 °FClear.2 mph100%30.18 "Hg10 mi
1:00 AM50 °FClear.2 mph88%30.21 "Hg10 mi
12:00 AM52 °FFog.3 mph88%30.21 "Hg3 mi
11:00 PM
Sep 21
52 °FFog.6 mph88%30.21 "Hg3 mi
10:00 PM54 °FFog.6 mph88%30.21 "Hg3 mi
9:00 PM52 °FFog.5 mph88%30.21 "Hg3 mi
5:00 PM61 °FPartly sunny.13 mph72%30.15 "HgN/A
4:00 PM64 °FPartly sunny.14 mph64%30.12 "HgN/A
3:00 PM66 °FPartly sunny.14 mph60%30.12 "HgN/A
2:00 PM63 °FBroken clouds.12 mph73%30.12 "HgN/A
1:00 PM66 °FPartly sunny.12 mph64%30.12 "HgN/A
12:00 PM64 °FBroken clouds.10 mph78%30.12 "HgN/A
11:00 AM61 °FSprinkles. More clouds than sun.15 mph77%N/AN/A
10:00 AM59 °FLight rain. More clouds than sun.15 mph88%30.12 "HgN/A
9:00 AM57 °FOvercast.14 mph88%30.09 "HgN/A
Weather by CustomWeather, © 2014

See weather overviewHow to use our weather pages